Погода в Валемаунте

Канада     52°49′36″N   119°16′36″W
темп.,
°C
ветер,
м/с
пор.,
м/с
влажн.,
%
обл.,
%
осадки,
мм/ч
давл.,
гПа
погр.,
м
13 июня, вс
вс1323:00+7ююв2268100 0.0 101427
02:00+7ююв2271100 0.0 101354
05:00+6ююв2473100 0.0 101497
08:00+7ююв2380100 0.4 1013255
11:00+9ююв2380100 1.0 1013502
14:00+8ююв2486100 0.3 1014469
17:00+13ююв2365100 0.3 1012973
20:00+11юв247299 0.0 1013315
14 июня, пн
пн1423:00+7ююв2294100 0.0 101443
02:00+8ююв129286 0.0 101357
05:00+7ююв2293100 0.0 101346
08:00+11юв3576100 0.0 1013470
11:00+16юв455798 0.1 10121273
14:00+16юв4551100 0.2 10131175
17:00+17зюз2240100 0.3 10111385
20:00+10ю3488100 1.7 1015241
15 июня, вт
вт1523:00+7юв239598 1.8 101553
02:00+7зсз1193100 0.0 101410
05:00+6св0093100 0.0 101210
08:00+8ююз1291100 0.9 1012154
11:00+9ю1291100 4.5 1011305
14:00+10ю3482100 2.4 1012505
17:00+14ю245159 3.3 10101541
20:00+9ююз3479100 1.3 1012146
16 июня, ср
ср1623:00+7зюз228794 1.6 101441
02:00+5зюз2393100 0.4 1017108
05:00+5юз239497 2.1 1018362
08:00+8ююз347538 0.7 1017856
11:00+12юз494494 1.0 10162252
14:00+14юз5836100 0.0 10162529
17:00+14юз4936100 0.0 10172510
20:00+11з2154100 0.0 101829
17 июня, чт
чт1723:00+7сз2370100 0.0 102154
02:00+5ссз1182100 0.0 102214
05:00+4ссз1184100 0.0 102310
08:00+9св0062100 0.0 1022399
11:00+16юв013890 0.0 10211724
14:00+19юз122983 0.0 10192809
17:00+19з222763 0.0 10182730
20:00+16з114342 0.0 101811